TimeCST,TemperatureF,Dew PointF,Humidity,Sea Level PressureIn,VisibilityMPH,Wind Direction,Wind SpeedMPH,Gust SpeedMPH,PrecipitationIn,Events,Conditions,WindDirDegrees,DateUTC
12:15 AM,55.4,44.6,67,30.46,10.0,NNE,18.4,25.3,N/A,,Overcast,30,2013-12-12 06:15:00
12:35 AM,55.4,44.6,67,30.46,10.0,NE,21.9,27.6,N/A,,Overcast,40,2013-12-12 06:35:00
12:55 AM,55.4,44.6,67,30.46,10.0,NE,20.7,27.6,N/A,,Overcast,40,2013-12-12 06:55:00
1:15 AM,55.4,44.6,67,30.46,10.0,NE,23.0,-,N/A,,Overcast,40,2013-12-12 07:15:00
1:35 AM,55.4,44.6,67,30.45,10.0,NE,15.0,27.6,N/A,,Overcast,50,2013-12-12 07:35:00
1:55 AM,55.4,42.8,63,30.45,10.0,NE,18.4,25.3,N/A,,Overcast,40,2013-12-12 07:55:00
2:15 AM,53.6,44.6,72,30.44,10.0,NE,21.9,28.8,N/A,,Mostly Cloudy,40,2013-12-12 08:15:00
2:35 AM,53.6,42.8,67,30.44,10.0,NE,19.6,26.5,N/A,,Partly Cloudy,40,2013-12-12 08:35:00
2:55 AM,53.6,42.8,67,30.44,10.0,NE,23.0,29.9,N/A,,Scattered Clouds,40,2013-12-12 08:55:00
3:15 AM,53.6,42.8,67,30.44,10.0,NE,17.3,29.9,N/A,,Overcast,40,2013-12-12 09:15:00
3:35 AM,53.6,42.8,67,30.45,10.0,NNE,23.0,-,N/A,,Mostly Cloudy,30,2013-12-12 09:35:00
3:55 AM,53.6,42.8,67,30.46,10.0,NNE,24.2,32.2,N/A,,Partly Cloudy,30,2013-12-12 09:55:00
4:15 AM,51.8,42.8,71,30.45,10.0,NNE,25.3,31.1,N/A,,Scattered Clouds,20,2013-12-12 10:15:00
4:35 AM,51.8,44.6,76,30.45,10.0,NNE,25.3,32.2,N/A,,Overcast,30,2013-12-12 10:35:00
4:55 AM,51.8,44.6,76,30.44,10.0,NNE,25.3,32.2,N/A,,Overcast,30,2013-12-12 10:55:00
5:15 AM,51.8,44.6,76,30.45,10.0,NE,24.2,31.1,N/A,,Scattered Clouds,40,2013-12-12 11:15:00
5:35 AM,50.0,44.6,82,30.45,10.0,NNE,24.2,29.9,N/A,,Partly Cloudy,30,2013-12-12 11:35:00
5:55 AM,51.8,44.6,76,30.45,10.0,NE,23.0,-,N/A,,Partly Cloudy,40,2013-12-12 11:55:00
6:15 AM,50.0,44.6,82,30.45,10.0,NE,21.9,28.8,N/A,,Scattered Clouds,40,2013-12-12 12:15:00
6:35 AM,51.8,46.4,82,30.46,10.0,NE,20.7,31.1,N/A,,Partly Cloudy,40,2013-12-12 12:35:00
6:55 AM,51.8,44.6,76,30.47,10.0,NE,18.4,28.8,N/A,,Partly Cloudy,40,2013-12-12 12:55:00
7:15 AM,51.8,46.4,82,30.47,9.0,NNE,23.0,-,N/A,,Scattered Clouds,30,2013-12-12 13:15:00
7:35 AM,51.8,44.6,76,30.48,9.0,NNE,24.2,-,N/A,,Scattered Clouds,30,2013-12-12 13:35:00
7:55 AM,51.8,44.6,76,30.49,10.0,NNE,23.0,-,N/A,,Scattered Clouds,30,2013-12-12 13:55:00
8:15 AM,50.0,44.6,82,30.50,10.0,NE,20.7,29.9,N/A,,Scattered Clouds,40,2013-12-12 14:15:00
8:35 AM,50.0,44.6,82,30.50,9.0,NNE,27.6,-,N/A,,Scattered Clouds,30,2013-12-12 14:35:00
8:55 AM,50.0,44.6,82,30.51,9.0,NNE,23.0,-,N/A,,Scattered Clouds,30,2013-12-12 14:55:00
9:15 AM,50.0,44.6,82,30.51,9.0,NNE,20.7,-,N/A,,Partly Cloudy,30,2013-12-12 15:15:00
9:35 AM,51.8,42.8,71,30.51,9.0,NE,15.0,27.6,N/A,,Partly Cloudy,50,2013-12-12 15:35:00
9:55 AM,51.8,42.8,71,30.51,10.0,NE,15.0,29.9,N/A,,Clear,40,2013-12-12 15:55:00
10:15 AM,51.8,42.8,71,30.51,10.0,NE,19.6,25.3,N/A,,Clear,40,2013-12-12 16:15:00
10:35 AM,51.8,44.6,76,30.51,10.0,NNE,19.6,-,N/A,,Partly Cloudy,30,2013-12-12 16:35:00
10:55 AM,51.8,44.6,76,30.51,10.0,NNE,16.1,21.9,N/A,,Partly Cloudy,30,2013-12-12 16:55:00
11:15 AM,51.8,42.8,71,30.51,9.0,NNE,18.4,-,N/A,,Partly Cloudy,30,2013-12-12 17:15:00
11:35 AM,50.0,42.8,76,30.50,10.0,NNE,19.6,-,N/A,,Partly Cloudy,20,2013-12-12 17:35:00
11:55 AM,50.0,42.8,76,30.49,10.0,NNE,17.3,-,N/A,,Partly Cloudy,30,2013-12-12 17:55:00
12:15 PM,50.0,42.8,76,30.48,9.0,NNE,18.4,-,N/A,,Scattered Clouds,30,2013-12-12 18:15:00
12:35 PM,50.0,42.8,76,30.47,10.0,NNE,18.4,-,N/A,,Scattered Clouds,20,2013-12-12 18:35:00
12:55 PM,50.0,42.8,76,30.46,9.0,NNE,19.6,-,N/A,,Mostly Cloudy,20,2013-12-12 18:55:00
1:15 PM,50.0,42.8,76,30.45,10.0,NNE,15.0,21.9,N/A,,Mostly Cloudy,30,2013-12-12 19:15:00
1:35 PM,50.0,42.8,76,30.44,10.0,NE,13.8,21.9,N/A,,Mostly Cloudy,40,2013-12-12 19:35:00
1:55 PM,50.0,42.8,76,30.43,10.0,NNE,16.1,-,N/A,,Mostly Cloudy,30,2013-12-12 19:55:00
2:15 PM,50.0,44.6,82,30.42,9.0,NNE,17.3,-,N/A,,Mostly Cloudy,30,2013-12-12 20:15:00
2:35 PM,50.0,42.8,76,30.41,10.0,NE,15.0,23.0,N/A,,Partly Cloudy,40,2013-12-12 20:35:00
2:55 PM,51.8,42.8,71,30.41,10.0,NE,13.8,21.9,N/A,,Partly Cloudy,40,2013-12-12 20:55:00
3:15 PM,51.8,42.8,71,30.39,10.0,NE,12.7,21.9,N/A,,Clear,50,2013-12-12 21:15:00
3:35 PM,51.8,42.8,71,30.39,10.0,NE,11.5,18.4,N/A,,Clear,50,2013-12-12 21:35:00
3:55 PM,51.8,42.8,71,30.39,10.0,NE,11.5,18.4,N/A,,Clear,50,2013-12-12 21:55:00
4:15 PM,51.8,42.8,71,30.39,10.0,NE,12.7,-,N/A,,Clear,50,2013-12-12 22:15:00
4:35 PM,51.8,42.8,71,30.39,10.0,ENE,10.4,17.3,N/A,,Clear,60,2013-12-12 22:35:00
4:55 PM,51.8,42.8,71,30.39,10.0,NE,12.7,-,N/A,,Clear,50,2013-12-12 22:55:00
5:15 PM,51.8,42.8,71,30.39,10.0,ENE,12.7,18.4,N/A,,Clear,60,2013-12-12 23:15:00
5:35 PM,51.8,42.8,71,30.38,10.0,ENE,12.7,-,N/A,,Clear,70,2013-12-12 23:35:00
5:55 PM,53.6,42.8,67,30.39,10.0,NE,12.7,-,N/A,,Clear,50,2013-12-12 23:55:00
6:15 PM,53.6,44.6,72,30.39,10.0,ENE,11.5,-,N/A,,Clear,60,2013-12-13 00:15:00
6:35 PM,53.6,44.6,72,30.39,10.0,ENE,10.4,-,N/A,,Clear,60,2013-12-13 00:35:00
6:55 PM,53.6,44.6,72,30.39,10.0,ENE,11.5,18.4,N/A,,Clear,70,2013-12-13 00:55:00
7:15 PM,53.6,44.6,72,30.39,10.0,ENE,12.7,19.6,N/A,,Clear,70,2013-12-13 01:15:00
7:35 PM,53.6,44.6,72,30.39,10.0,ENE,13.8,-,N/A,,Clear,70,2013-12-13 01:35:00
7:55 PM,53.6,44.6,72,30.39,10.0,ENE,12.7,-,N/A,,Clear,70,2013-12-13 01:55:00
8:15 PM,53.6,44.6,72,30.40,10.0,ENE,10.4,-,N/A,,Clear,60,2013-12-13 02:15:00
8:35 PM,55.4,46.4,72,30.41,10.0,ENE,10.4,-,N/A,,Clear,70,2013-12-13 02:35:00
8:55 PM,55.4,46.4,72,30.39,10.0,Variable,6.9,17.3,N/A,,Partly Cloudy,0,2013-12-13 02:55:00
9:15 PM,57.2,44.6,63,30.38,10.0,East,8.1,16.1,N/A,,Mostly Cloudy,90,2013-12-13 03:15:00
9:35 PM,57.2,46.4,67,30.38,10.0,Variable,4.6,15.0,N/A,,Overcast,0,2013-12-13 03:35:00
9:55 PM,57.2,46.4,67,30.37,10.0,Variable,4.6,16.1,N/A,,Overcast,0,2013-12-13 03:55:00
10:15 PM,57.2,46.4,67,30.37,10.0,Variable,3.5,13.8,N/A,,Overcast,0,2013-12-13 04:15:00
10:35 PM,57.2,46.4,67,30.36,10.0,Variable,4.6,16.1,N/A,,Overcast,0,2013-12-13 04:35:00
10:55 PM,59.0,46.4,63,30.35,10.0,Variable,4.6,12.7,N/A,,Overcast,0,2013-12-13 04:55:00
11:15 PM,59.0,48.2,67,30.35,10.0,Variable,5.8,13.8,N/A,,Overcast,0,2013-12-13 05:15:00
11:35 PM,59.0,48.2,67,30.33,10.0,Variable,5.8,17.3,N/A,,Overcast,0,2013-12-13 05:35:00
11:55 PM,59.0,48.2,67,30.31,10.0,East,9.2,-,N/A,,Overcast,100,2013-12-13 05:55:00